This is the latest recevied weather packets stored in our database for station/object KA0EGE. If no packets are shown the sender has not sent any weather packets the latest 10 day(s).
| Time | Temp. | Humidity | Pressure | Rain* | Wind** | Luminosity | Snow |
|---|---|---|---|---|---|---|---|
| 1777834481 | 23.89° C | 35% | 1022.2 hPa | 0 mm | - | 870 W/m² | - |
| 1777834180 | 23.89° C | 37% | 1022.4 hPa | 0 mm | - | 865 W/m² | - |
| 1777833877 | 24.44° C | 32% | 1022.5 hPa | 0 mm | - | 779 W/m² | - |
| 1777833573 | 23.89° C | 37% | 1022.4 hPa | 0 mm | - | 861 W/m² | - |
| 1777833270 | 24.44° C | 33% | 1022.5 hPa | 0 mm | - | 866 W/m² | - |
| 1777832967 | 23.89° C | 35% | 1022.5 hPa | 0 mm | - | 856 W/m² | - |
| 1777832666 | 23.89° C | 33% | 1022.5 hPa | 0 mm | - | 831 W/m² | - |
| 1777832363 | 24.44° C | 34% | 1022.6 hPa | 0 mm | - | 876 W/m² | - |
| 1777832060 | 23.89° C | 39% | 1022.5 hPa | 0 mm | - | 858 W/m² | - |
| 1777831756 | 23.89° C | 32% | 1022.6 hPa | 0 mm | - | 839 W/m² | - |
| 1777831455 | 23.89° C | 33% | 1022.4 hPa | 0 mm | - | 878 W/m² | - |
| 1777831151 | 24.44° C | 33% | 1022.7 hPa | 0 mm | - | 884 W/m² | - |
| 1777830849 | 23.89° C | 39% | 1022.7 hPa | 0 mm | - | 883 W/m² | - |
| 1777830544 | 23.89° C | 34% | 1022.8 hPa | 0 mm | - | 884 W/m² | - |
| 1777830243 | 23.33° C | 38% | 1022.7 hPa | 0 mm | - | 883 W/m² | - |
| 1777829937 | 23.89° C | 36% | 1022.9 hPa | 0 mm | - | 884 W/m² | - |
| 1777829634 | 23.89° C | 37% | 1022.8 hPa | 0 mm | - | 885 W/m² | - |
| 1777829330 | 23.33° C | 35% | 1023 hPa | 0 mm | - | 886 W/m² | - |
| 1777829028 | 23.33° C | 37% | 1023.1 hPa | 0 mm | - | 884 W/m² | - |
| 1777828724 | 23.89° C | 34% | 1023.2 hPa | 0 mm | - | 883 W/m² | - |
| 1777828421 | 23.33° C | 39% | 1023.2 hPa | 0 mm | - | 881 W/m² | - |
| 1777828118 | 23.33° C | 36% | 1023.3 hPa | 0 mm | - | 879 W/m² | - |
| 1777827815 | 23.33° C | 34% | 1023.3 hPa | 0 mm | - | 871 W/m² | - |
| 1777827511 | 23.89° C | 38% | 1023.3 hPa | 0 mm | - | 868 W/m² | - |
| 1777827210 | 23.33° C | 38% | 1023.3 hPa | 0 mm | - | 866 W/m² | - |
* Rain latest hour (hover to see other rain measurements)
** Current wind speed in m/s (hover to see current wind gust speed)